ZF1RC George Town KY current weather conditions

sailwx.info

Wind from 104 at 1 knots gusting 4

Air temperature 27.8° C
Dewpoint 24.8° C

Last reported at 2014-Jul-23 14:50 UTC.
Time now 2014-Jul-23 16:03 UTC

Location: N 19°16' W 081°23'.
View on Google Maps.

See reports from other nearby stations

  
Tides and Currents Weather Stations Pressure Air Temp Water Temp Dewpoint Dewpoint Depression Visibility Wind Speed Wind Dir Waves Ship Positions
date/time (UTC)wind fromknots sea level pressurealtimeterstation pressurevisibilityair tempwater tempwave heightnotes
2014-Jul-23 14:50 104 1 gusting 4 27.8
2014-Jul-23 14:40 062 6 gusting 7 27.8
2014-Jul-23 14:30 091 2 gusting 4 28.9
2014-Jul-23 14:20 108 29.4
2014-Jul-23 14:10 102 1 gusting 5 30.0
2014-Jul-23 13:50 124 1 gusting 6 30.0
2014-Jul-23 13:40 097 1 gusting 2 30.0
2014-Jul-23 13:30 111 1 gusting 4 29.4
2014-Jul-23 13:20 082 4 gusting 6 28.9
2014-Jul-23 13:10 109 1 gusting 6 28.9
2014-Jul-23 13:00 104 0 gusting 5 28.9
2014-Jul-23 12:50 084 2 gusting 6 28.9
2014-Jul-23 12:40 087 2 gusting 5 28.9
2014-Jul-23 12:30 176 1 gusting 5 28.3
2014-Jul-23 12:20 112 3 gusting 4 27.8
2014-Jul-23 12:10 074 1 gusting 5 27.8
2014-Jul-23 11:50 075 1 gusting 1 26.7
2014-Jul-23 11:30 088 2 gusting 4 26.1
2014-Jul-23 11:10 098 0 gusting 2 26.1
2014-Jul-23 10:50 100 1 gusting 1 26.1
2014-Jul-23 10:40 120 1 gusting 4 26.7
2014-Jul-23 10:20 079 2 gusting 2 26.7
2014-Jul-23 10:10 073 2 gusting 2 27.2
2014-Jul-23 09:50 087 27.2
2014-Jul-23 09:40 123 27.2
2014-Jul-23 09:20 108 1 gusting 6 27.8
2014-Jul-23 09:10 089 2 gusting 4 27.8
2014-Jul-23 09:00 067 1 gusting 2 27.8
2014-Jul-23 08:50 086 2 gusting 4 27.8
2014-Jul-23 08:40 078 2 gusting 2 27.8
2014-Jul-23 08:30 080 1 gusting 5 27.8
2014-Jul-23 08:20 090 2 gusting 6 28.3
2014-Jul-23 08:10 086 2 gusting 5 27.8
2014-Jul-23 08:00 085 2 gusting 5 27.8
2014-Jul-23 07:50 088 4 gusting 4 27.8
2014-Jul-23 07:40 079 2 gusting 5 27.8
2014-Jul-23 07:30 090 2 gusting 4 27.8
2014-Jul-23 07:10 105 1 gusting 4 27.8
2014-Jul-23 07:00 050 2 gusting 5 27.2
2014-Jul-23 06:50 097 1 gusting 2 27.2
2014-Jul-23 06:40 049 0 gusting 2 27.2
2014-Jul-23 06:30 071 1 gusting 2 27.2
2014-Jul-23 06:20 076 1 gusting 1 27.2
2014-Jul-23 06:10 108 1 gusting 2 27.2
2014-Jul-23 06:00 075 0 gusting 2 27.8
2014-Jul-23 05:50 091 1 gusting 2 27.8
2014-Jul-23 05:20 080 2 gusting 5 27.8
2014-Jul-23 05:10 038 0 gusting 2 27.8
2014-Jul-23 05:00 079 1 gusting 4 27.8
2014-Jul-23 04:50 071 2 gusting 2 27.8
2014-Jul-23 04:40 075 2 gusting 4 27.8
2014-Jul-23 04:30 049 2 gusting 4 27.8
2014-Jul-23 04:20 127 2 gusting 5 27.8
2014-Jul-23 04:10 063 3 gusting 4 28.3
2014-Jul-23 03:40 030 0 gusting 4 28.3
2014-Jul-23 03:30 071 1 gusting 6 28.3
2014-Jul-23 03:20 086 2 gusting 4 28.3
2014-Jul-23 03:10 081 2 gusting 5 28.3
2014-Jul-23 03:00 040 1 gusting 5 28.3
2014-Jul-23 02:50 046 2 gusting 4 28.3
2014-Jul-23 02:40 075 4 gusting 6 28.3
2014-Jul-23 02:30 062 2 gusting 4 28.3
2014-Jul-23 02:20 089 4 gusting 5 28.3
2014-Jul-23 02:10 081 2 gusting 4 28.3
2014-Jul-23 02:00 043 1 gusting 4 28.3
2014-Jul-23 01:50 080 2 gusting 5 28.3
2014-Jul-23 01:40 081 2 gusting 5 28.9
2014-Jul-23 01:20 071 2 gusting 2 28.9
2014-Jul-23 01:10 057 1 gusting 6 28.9
2014-Jul-23 01:00 095 5 gusting 6 28.3
2014-Jul-23 00:50 117 2 gusting 5 28.9
2014-Jul-23 00:30 079 2 gusting 4 28.9
2014-Jul-23 00:10 067 0 gusting 5 28.9
2014-Jul-23 00:00 018 2 gusting 6 28.9
2014-Jul-22 23:50 027 4 gusting 6 29.4
2014-Jul-22 23:40 083 6 gusting 7 29.4
2014-Jul-22 23:20 049 3 gusting 6 30.0
2014-Jul-22 23:10 090 5 gusting 8 30.0
2014-Jul-22 22:54 104 2 gusting 7 30.0
2014-Jul-22 22:40 118 1 gusting 8 30.6
2014-Jul-22 22:30 059 1 gusting 4 30.0
2014-Jul-22 22:10 071 0 gusting 1 30.0
2014-Jul-22 22:00 118 1 gusting 1 30.0
2014-Jul-22 21:50 078 0 gusting 1 30.0
2014-Jul-22 21:30 021 0 gusting 2 31.1
2014-Jul-22 21:20 090 0 gusting 1 31.1
2014-Jul-22 21:10 194 0 gusting 2 31.1
2014-Jul-22 21:00 198 0 gusting 0 31.7
2014-Jul-22 20:50 008 0 gusting 1 31.7
2014-Jul-22 20:40 123 0 gusting 2 31.7
2014-Jul-22 20:30 190 0 gusting 4 31.7
2014-Jul-22 20:20 098 31.7
2014-Jul-22 20:00 170 0 gusting 1 31.7
2014-Jul-22 19:50 151 0 gusting 4 31.7
2014-Jul-22 19:40 242 0 gusting 1 31.7
2014-Jul-22 19:30 072 1 gusting 1 31.7
2014-Jul-22 19:20 198 31.7
2014-Jul-22 19:10 145 1 gusting 1 32.2
2014-Jul-22 19:00 184 1 gusting 1 32.2
2014-Jul-22 18:50 149 0 gusting 1 32.2
2014-Jul-22 18:40 139 0 gusting 5 32.2
2014-Jul-22 18:30 122 0 gusting 2 32.2
2014-Jul-22 18:20 097 0 gusting 1 32.2
2014-Jul-22 18:10 174 1 gusting 1 31.7
2014-Jul-22 17:50 138 1 gusting 1 31.7
2014-Jul-22 17:40 159 0 gusting 1 31.7
2014-Jul-22 17:30 168 31.7
2014-Jul-22 17:10 31.7
2014-Jul-22 17:00 132 31.7
2014-Jul-22 16:50 063 0 gusting 0 31.7
2014-Jul-22 16:40 132 1 gusting 1 31.7
2014-Jul-22 16:30 062 31.7
2014-Jul-22 16:20 150 1 gusting 1 31.7
2014-Jul-22 16:00 009 30.0
2014-Jul-22 15:50 132 1 gusting 1 30.0
2014-Jul-22 15:40 169 0 gusting 1 30.6
2014-Jul-22 15:30 172 3 gusting 5 31.1
2014-Jul-22 15:20 163 0 gusting 6 31.1
2014-Jul-22 15:10 129 0 gusting 6 30.6
2014-Jul-22 14:50 043 1 gusting 4 30.6
2014-Jul-22 14:40 182 0 gusting 2 30.0
2014-Jul-22 14:30 098 1 gusting 8 30.6
2014-Jul-22 14:20 224 30.0
2014-Jul-22 14:00 192 0 gusting 4 29.4
2014-Jul-22 13:50 280 1 gusting 6 29.4
2014-Jul-22 13:40 111 2 gusting 8 30.0
2014-Jul-22 13:20 095 3 gusting 8 30.0
2014-Jul-22 13:00 122 0 gusting 6 30.0
2014-Jul-22 12:40 095 1 gusting 6 29.4
2014-Jul-22 12:30 088 4 gusting 5 28.9
2014-Jul-22 12:20 062 2 gusting 5 28.3
2014-Jul-22 12:10 113 4 gusting 4 28.3
2014-Jul-22 12:00 108 3 gusting 4 27.8
2014-Jul-22 11:40 091 5 gusting 6 27.2
2014-Jul-22 11:30 092 4 gusting 5 27.2
2014-Jul-22 11:20 100 4 gusting 5 27.2
2014-Jul-22 11:00 102 2 gusting 2 26.7
2014-Jul-22 10:50 102 1 gusting 4 26.7
2014-Jul-22 10:40 103 2 gusting 4 26.7
2014-Jul-22 10:30 100 1 gusting 5 26.7
2014-Jul-22 10:00 105 1 gusting 4 27.2
2014-Jul-22 09:40 094 3 gusting 5 27.2
2014-Jul-22 09:30 063 3 gusting 5 27.2
2014-Jul-22 09:10 046 1 gusting 4 27.2
2014-Jul-22 09:00 081 4 gusting 4 27.2
2014-Jul-22 08:50 065 3 gusting 4 27.2
2014-Jul-22 08:40 093 4 gusting 4 27.2
2014-Jul-22 08:30 076 3 gusting 4 27.2
2014-Jul-22 08:20 094 3 gusting 4 27.2
2014-Jul-22 08:10 066 1 gusting 4 27.2
2014-Jul-22 08:00 078 1 gusting 2 27.2
2014-Jul-22 07:50 093 2 gusting 4 27.2
2014-Jul-22 07:40 058 1 gusting 4 27.2
2014-Jul-22 07:30 075 2 gusting 4 27.2
2014-Jul-22 07:20 077 2 gusting 4 27.2
2014-Jul-22 07:10 068 1 gusting 4 27.2
2014-Jul-22 07:00 069 2 gusting 4 27.2
2014-Jul-22 06:30 069 2 gusting 4 27.2
2014-Jul-22 06:20 111 1 gusting 4 27.2
2014-Jul-22 06:10 122 1 gusting 5 27.2
2014-Jul-22 06:00 075 2 gusting 4 27.2
2014-Jul-22 05:50 108 3 gusting 6 27.2
2014-Jul-22 05:40 070 2 gusting 4 27.2
2014-Jul-22 05:30 093 2 gusting 4 27.2
2014-Jul-22 05:20 078 1 gusting 4 27.2
2014-Jul-22 05:10 058 2 gusting 5 27.2
2014-Jul-22 05:00 034 3 gusting 5 27.2
2014-Jul-22 04:50 085 5 gusting 6 27.8
2014-Jul-22 04:40 071 2 gusting 5 27.8
2014-Jul-22 04:20 098 1 gusting 8 27.8
2014-Jul-22 04:10 081 3 gusting 4 27.8
2014-Jul-22 04:00 090 1 gusting 2 27.8
2014-Jul-22 03:40 088 5 gusting 5 27.8
2014-Jul-22 03:30 119 2 gusting 4 27.8
2014-Jul-22 03:20 079 3 gusting 4 27.8
2014-Jul-22 03:10 102 1 gusting 2 27.8
2014-Jul-22 03:00 082 2 gusting 2 27.8
2014-Jul-22 02:50 084 1 gusting 2 27.8
2014-Jul-22 02:40 071 1 gusting 2 27.8
2014-Jul-22 02:20 119 1 gusting 2 27.8
2014-Jul-22 02:10 088 0 gusting 2 27.8
2014-Jul-22 01:50 092 1 gusting 4 27.8
2014-Jul-22 01:40 100 1 gusting 1 28.3
2014-Jul-22 01:30 082 2 gusting 4 28.3
2014-Jul-22 01:20 099 2 gusting 2 28.3
2014-Jul-22 01:10 141 1 gusting 4 28.3
2014-Jul-22 01:00 088 2 gusting 5 28.3
2014-Jul-22 00:50 102 2 gusting 4 28.9
2014-Jul-22 00:40 078 4 gusting 5 28.9
2014-Jul-22 00:30 083 1 gusting 2 28.9
2014-Jul-22 00:20 101 3 gusting 6 28.9
2014-Jul-22 00:10 099 5 gusting 6 28.9
2014-Jul-22 00:00 100 3 gusting 5 29.4
2014-Jul-21 23:50 064 2 gusting 5 29.4
2014-Jul-21 23:40 076 1 gusting 2 29.4
2014-Jul-21 23:20 089 0 gusting 6 30.0
2014-Jul-21 23:10 098 1 gusting 2 30.0
2014-Jul-21 23:00 065 30.6
2014-Jul-21 22:54 110 1 gusting 2 30.6
2014-Jul-21 22:50 120 30.6
2014-Jul-21 22:40 095 0 gusting 2 30.6
2014-Jul-21 22:30 286 31.1
2014-Jul-21 22:20 255 0 gusting 4 30.6
2014-Jul-21 22:10 067 0 gusting 1 31.1
2014-Jul-21 21:50 157 0 gusting 1 31.1
2014-Jul-21 21:40 088 0 gusting 1 31.1
2014-Jul-21 21:10 170 0 gusting 0 31.1
2014-Jul-21 20:50 226 31.1
2014-Jul-21 20:30 156 0 gusting 4 31.1
2014-Jul-21 20:20 103 30.6
2014-Jul-21 20:10 133 0 gusting 1 31.1
2014-Jul-21 20:00 089 0 gusting 2 31.1
2014-Jul-21 19:50 106 0 gusting 4 31.7
2014-Jul-21 19:30 194 0 gusting 2 31.7
2014-Jul-21 19:20 132 1 gusting 4 32.2
2014-Jul-21 19:10 112 0 gusting 2 31.7
2014-Jul-21 19:00 163 0 gusting 1 31.7
2014-Jul-21 18:50 169 1 gusting 2 31.7
2014-Jul-21 18:40 341 0 gusting 1 31.7
2014-Jul-21 18:30 108 0 gusting 6 32.2
2014-Jul-21 18:20 163 4 gusting 4 31.7
2014-Jul-21 18:10 117 1 gusting 2 31.7
2014-Jul-21 18:00 136 1 gusting 4 31.7
2014-Jul-21 17:50 115 0 gusting 2 31.7
2014-Jul-21 17:40 211 0 gusting 2 31.7
2014-Jul-21 17:30 141 0 gusting 1 31.7
2014-Jul-21 17:10 176 2 gusting 6 31.1
2014-Jul-21 17:00 159 1 gusting 5 31.1
2014-Jul-21 16:50 100 2 gusting 6 31.1
2014-Jul-21 16:40 158 0 gusting 1 31.1
2014-Jul-21 16:30 095 1 gusting 4 31.1
2014-Jul-21 16:20 149 1 gusting 4 31.1
2014-Jul-21 16:10 221 1 gusting 2 31.1
2014-Jul-21 16:00 162 2 gusting 5 31.1